Regional Weather Roundup
Issued by NWS Albany, NY

Home | Current Version | Previous Version | Text Only | Print | Product List | Glossary On
Versions: 1 2 3 4 5 6 7 8 9 10 11 12 13 14 15 16 17 18 19 20 21 22 23 24 25 26 27 28
000
ASUS41 KALY 251010
RWRALY

NEW YORK STATE HOURLY WEATHER ROUNDUP
NATIONAL WEATHER SERVICE ALBANY NY
600 AM EDT SAT OCT 25 2014

NOTE: "FAIR" INDICATES FEW OR NO CLOUDS BELOW 12,000 FEET WITH NO
SIGNIFICANT WEATHER AND/OR NO OBSTRUCTIONS TO VISIBILITY.

NYZ032-033-038>043-046>054-057>066-NYZ062>081-251100-
EAST


CITY           SKY/WX    TMP DP  RH WIND       PRES   REMARKS
ALBANY         PTCLDY    44  40  85 CALM      29.84S
GLENS FALLS    FOG       41  40  96 S3        29.81S VSB 1/4
POUGHKEEPSIE   PTCLDY    36  34  92 CALM      29.86R
NEWBURGH       PTCLDY    43  37  81 W5        29.86S
MONTGOMERY     CLEAR     46  35  65 VRB3      29.85R
WHITE PLAINS   PTCLDY    46  38  73 W7        29.85R
ISLIP          MOCLDY    46  42  86 W5        29.83R
NEW YORK CITY  PTCLDY    53  38  56 W9        29.86R
CENTRAL PARK   CLEAR     51  36  56 W7        29.90R
$$

NYZ005>009-017-018-044>046-055-056-251100-
CENTRAL


CITY           SKY/WX    TMP DP  RH WIND       PRES   REMARKS
FULTON         CLOUDY    46  42  86 SW6       29.85S FOG
SYRACUSE       MOCLDY    50  45  83 SW7       29.85F
ROME           CLOUDY    43  41  93 CALM      29.86F
ELMIRA         CLOUDY    40  36  86 SW3       29.89F
BINGHAMTON     CLOUDY    42  35  76 SW7       29.87S
MONTICELLO     CLEAR     39  34  81 W7        29.87F WCI  34
$$

NYZ026>034-041>043-251100-
NORTH


CITY           SKY/WX    TMP DP  RH WIND       PRES   REMARKS
WATERTOWN      PTCLDY    46  40  79 CALM      29.82F
FORT DRUM      NOT AVBL
MASSENA        CLEAR     37  35  92 SW8       29.80S WCI  31
SARANAC LAKE   CLOUDY    40  39  97 SW8       29.78S FOG     WCI  34
PLATTSBURGH    MOCLDY    44  39  82 CALM      29.76S
$$

NYZ001>004-010>016-019>021-251100-
WEST


CITY           SKY/WX    TMP DP  RH WIND       PRES   REMARKS
NIAGARA FALLS  CLOUDY    53  48  83 SW10      29.84F
BUFFALO        CLOUDY    55  51  86 SW9       29.85F
DUNKIRK        CLOUDY    52  46  80 SW6       29.88S
JAMESTOWN      CLOUDY    48  43  81 SW7       29.90R
WELLSVILLE     CLOUDY    47  39  74 W8        29.90F
ROCHESTER      CLOUDY    50  46  86 SW6       29.85F
PENN YAN       CLOUDY    50  44  80 S7        29.87F
$$

             KEY
       WCI = WIND CHILL INDEX
       VSB = VISIBILITY
       HX  = HEAT INDEX
$$



USA.gov is the U.S. government's official web portal to all federal, state and local government web resources and services.